Location: Molino di Ancona
(43.6167°N, 13.3667°E)
Time: 13:04:03
(UTC+00:00)

SKYMED 3 - Pass Details

Date: 15 December 2019
Orbit: 621 x 623 km, 97.9° (Epoch: 25 January)

Event Time Altitude Azimuth Distance (km) Brightness Sun altitude
Rises 04:21:01 0° 168° (SSE) 2,890 8.3 -22.9°
Reaches altitude 10° 04:23:12 10° 170° (S) 1,989 7.4 -22.5°
Maximum altitude 04:27:32 80° 257° (WSW) 639 4.4 -21.7°
Enters shadow 04:28:51 45° 337° (NNW) 858 5.0 -21.5°
